When you browse on this site, cookies collect data to enhance your experience and personalize the content and advertising you see.
Visit our Privacy Policy to learn more. By continuing to use the site, you agree to this use of cookies and data.
  • In Sweden
  • List of Countries
  • For 7 days
  • Water Temperature
  • Weather Map
  • Weather Widgets
  • user-avatar
    Login

    Hourly Weather Rudnihino

    Today, 16 December, Monday

    Time Temperature Precipitation Wind Pressure Humidity
    00:00 0°C° 0 mm 4 mps 734 mmHg 88%
    01:00 -1°C° 0 mm 4 mps 734 mmHg 89%
    02:00 -1°C° 0 mm 4 mps 734 mmHg 90%
    03:00 0°C° 0.2 mm 4 mps 734 mmHg 90%
    04:00 0°C° 0.2 mm 5 mps 734 mmHg 90%
    05:00 +1°C° 0.2 mm 5 mps 733 mmHg 89%
    06:00 +1°C° 0.2 mm 5 mps 733 mmHg 88%
    07:00 +1°C° 0.2 mm 5 mps 733 mmHg 87%
    08:00 +1°C° 0.2 mm 6 mps 733 mmHg 86%
    09:00 +1°C° 0.4 mm 6 mps 733 mmHg 86%
    10:00 +1°C° 0.4 mm 6 mps 733 mmHg 85%
    11:00 0°C° 0.4 mm 7 mps 733 mmHg 85%
    12:00 0°C° 0.1 mm 7 mps 734 mmHg 83%
    13:00 0°C° 0.1 mm 7 mps 734 mmHg 81%
    14:00 0°C° 0.1 mm 7 mps 735 mmHg 80%
    15:00 0°C° 0.1 mm 7 mps 736 mmHg 79%
    16:00 +1°C° 0.1 mm 6 mps 737 mmHg 78%
    17:00 +1°C° 0.1 mm 6 mps 738 mmHg 77%
    18:00 +1°C° 0 mm 5 mps 738 mmHg 80%
    19:00 +1°C° 0 mm 5 mps 739 mmHg 82%
    20:00 0°C° 0 mm 4 mps 740 mmHg 85%
    21:00 0°C° 0 mm 4 mps 740 mmHg 86%
    22:00 +1°C° 0 mm 3 mps 741 mmHg 87%
    23:00 +1°C° 0 mm 3 mps 741 mmHg 88%

    Tomorrow, 17 December, Tuesday

    Time Temperature Precipitation Wind Pressure Humidity
    00:00 +1°C° 0 mm 3 mps 741 mmHg 89%
    01:00 +1°C° 0 mm 3 mps 741 mmHg 90%
    02:00 +1°C° 0 mm 3 mps 742 mmHg 91%
    03:00 +1°C° 0 mm 3 mps 741 mmHg 90%
    04:00 0°C° 0 mm 4 mps 741 mmHg 89%
    05:00 0°C° 0 mm 4 mps 740 mmHg 88%
    06:00 0°C° 0.2 mm 4 mps 740 mmHg 91%
    07:00 +1°C° 0.2 mm 3 mps 740 mmHg 93%
    08:00 +1°C° 0.2 mm 3 mps 740 mmHg 95%
    09:00 +1°C° 0.3 mm 3 mps 740 mmHg 94%
    10:00 +1°C° 0.3 mm 3 mps 740 mmHg 94%
    11:00 +2°C° 0.3 mm 3 mps 740 mmHg 93%
    12:00 +2°C° 0 mm 3 mps 740 mmHg 93%
    13:00 +3°C° 0 mm 2 mps 740 mmHg 93%
    14:00 +3°C° 0 mm 2 mps 740 mmHg 93%
    15:00 +3°C° 0 mm 2 mps 740 mmHg 94%
    16:00 +3°C° 0 mm 2 mps 740 mmHg 96%
    17:00 +3°C° 0 mm 1 mps 740 mmHg 97%
    18:00 +3°C° 0 mm 1 mps 741 mmHg 97%
    19:00 +3°C° 0 mm 1 mps 741 mmHg 97%
    20:00 +3°C° 0 mm 1 mps 741 mmHg 97%
    21:00 +3°C° 0 mm 1 mps 741 mmHg 97%
    22:00 +3°C° 0 mm 1 mps 741 mmHg 97%
    23:00 +4°C° 0 mm 1 mps 742 mmHg 97%

    Day after tomorrow, 18 December, Wednesday

    Time Temperature Precipitation Wind Pressure Humidity
    00:00 +4°C° 0 mm 1 mps 741 mmHg 97%
    01:00 +3°C° 0 mm 2 mps 741 mmHg 96%
    02:00 +3°C° 0 mm 2 mps 741 mmHg 96%
    03:00 +3°C° 0 mm 2 mps 741 mmHg 96%
    04:00 +3°C° 0 mm 2 mps 741 mmHg 96%
    05:00 +4°C° 0 mm 2 mps 741 mmHg 96%
    06:00 +3°C° 0 mm 3 mps 740 mmHg 96%
    07:00 +3°C° 0 mm 3 mps 740 mmHg 96%
    08:00 +2°C° 0 mm 3 mps 740 mmHg 95%
    09:00 +3°C° 0 mm 3 mps 739 mmHg 94%
    10:00 +3°C° 0 mm 4 mps 739 mmHg 93%
    11:00 +3°C° 0 mm 4 mps 739 mmHg 91%
    12:00 +3°C° 0 mm 4 mps 739 mmHg 91%
    13:00 +3°C° 0 mm 4 mps 739 mmHg 90%
    14:00 +4°C° 0 mm 3 mps 738 mmHg 89%
    15:00 +4°C° 0 mm 4 mps 738 mmHg 89%
    16:00 +4°C° 0 mm 4 mps 738 mmHg 90%
    17:00 +3°C° 0 mm 4 mps 737 mmHg 90%
    18:00 +3°C° 0 mm 5 mps 737 mmHg 90%
    19:00 +3°C° 0 mm 5 mps 737 mmHg 90%
    20:00 +5°C° 0 mm 5 mps 737 mmHg 90%
    21:00 +5°C° 0 mm 5 mps 737 mmHg 86%
    22:00 +3°C° 0 mm 5 mps 737 mmHg 83%
    23:00 +3°C° 0 mm 6 mps 737 mmHg 79%

    19 December, Thursday

    Time Temperature Precipitation Wind Pressure Humidity
    00:00 +3°C° 0 mm 6 mps 738 mmHg 80%
    01:00 +2°C° 0 mm 6 mps 738 mmHg 80%
    02:00 +1°C° 0 mm 6 mps 738 mmHg 81%
    03:00 +1°C° 0 mm 6 mps 738 mmHg 80%
    04:00 +1°C° 0 mm 6 mps 739 mmHg 79%
    05:00 +1°C° 0 mm 6 mps 739 mmHg 78%
    06:00 +1°C° 0 mm 6 mps 739 mmHg 78%
    07:00 +1°C° 0 mm 6 mps 739 mmHg 78%
    08:00 +1°C° 0 mm 6 mps 740 mmHg 78%
    09:00 +1°C° 0 mm 6 mps 740 mmHg 77%
    10:00 +1°C° 0 mm 6 mps 741 mmHg 76%
    11:00 +1°C° 0 mm 6 mps 742 mmHg 75%
    12:00 +1°C° 0 mm 5 mps 742 mmHg 76%
    13:00 0°C° 0 mm 5 mps 743 mmHg 76%
    14:00 0°C° 0 mm 4 mps 743 mmHg 77%
    15:00 0°C° 0 mm 4 mps 743 mmHg 80%
    16:00 0°C° 0 mm 3 mps 744 mmHg 84%
    17:00 0°C° 0 mm 3 mps 744 mmHg 87%
    18:00 -1°C° 0 mm 3 mps 744 mmHg 89%
    19:00 -1°C° 0 mm 2 mps 745 mmHg 91%
    20:00 -1°C° 0 mm 2 mps 745 mmHg 93%
    21:00 -2°C° 0 mm 2 mps 745 mmHg 94%
    22:00 -2°C° 0 mm 2 mps 745 mmHg 94%
    23:00 -2°C° 0 mm 2 mps 746 mmHg 95%

    20 December, Friday

    Time Temperature Precipitation Wind Pressure Humidity
    00:00 -2°C° 0 mm 2 mps 746 mmHg 95%
    01:00 -2°C° 0 mm 2 mps 746 mmHg 95%
    02:00 0°C° 0 mm 1 mps 746 mmHg 95%
    03:00 0°C° 0 mm 1 mps 746 mmHg 94%
    04:00 0°C° 0 mm 1 mps 746 mmHg 94%
    05:00 0°C° 0 mm 1 mps 746 mmHg 94%
    06:00 0°C° 0 mm 1 mps 746 mmHg 93%
    07:00 0°C° 0 mm 1 mps 746 mmHg 91%
    08:00 0°C° 0 mm 1 mps 746 mmHg 90%
    09:00 0°C° 0 mm 1 mps 746 mmHg 87%
    10:00 +1°C° 0 mm 1 mps 746 mmHg 83%
    11:00 +1°C° 0 mm 1 mps 746 mmHg 79%
    12:00 +1°C° 0 mm 1 mps 746 mmHg 78%
    13:00 +1°C° 0 mm 1 mps 745 mmHg 77%
    14:00 +1°C° 0 mm 1 mps 745 mmHg 76%
    15:00 +1°C° 0 mm 1 mps 745 mmHg 78%
    16:00 0°C° 0 mm 1 mps 745 mmHg 80%
    17:00 0°C° 0 mm 1 mps 745 mmHg 82%
    18:00 0°C° 0 mm 1 mps 745 mmHg 81%
    19:00 -2°C° 0 mm 2 mps 744 mmHg 81%
    20:00 -3°C° 0 mm 2 mps 744 mmHg 80%
    21:00 -3°C° 0 mm 2 mps 744 mmHg 79%
    22:00 -3°C° 0 mm 2 mps 744 mmHg 77%
    23:00 -3°C° 0 mm 2 mps 743 mmHg 76%

    21 December, Saturday

    Time Temperature Precipitation Wind Pressure Humidity
    00:00 -3°C° 0 mm 2 mps 743 mmHg 75%
    01:00 -3°C° 0 mm 2 mps 743 mmHg 73%
    02:00 -3°C° 0 mm 2 mps 743 mmHg 72%
    03:00 -4°C° 0 mm 3 mps 742 mmHg 71%
    04:00 -4°C° 0 mm 3 mps 742 mmHg 69%
    05:00 -4°C° 0 mm 3 mps 742 mmHg 68%
    06:00 -4°C° 0 mm 3 mps 742 mmHg 66%
    07:00 -2°C° 0 mm 3 mps 742 mmHg 64%
    08:00 -2°C° 0 mm 3 mps 741 mmHg 63%
    09:00 -2°C° 0 mm 3 mps 741 mmHg 60%
    10:00 -1°C° 0 mm 3 mps 741 mmHg 58%
    11:00 -1°C° 0 mm 3 mps 741 mmHg 55%
    12:00 -1°C° 0 mm 3 mps 741 mmHg 55%
    13:00 -1°C° 0 mm 3 mps 741 mmHg 54%
    14:00 -1°C° 0 mm 3 mps 741 mmHg 53%
    15:00 -1°C° 0 mm 3 mps 740 mmHg 56%
    16:00 -1°C° 0 mm 3 mps 740 mmHg 58%
    17:00 -1°C° 0 mm 3 mps 740 mmHg 61%
    18:00 -1°C° 0 mm 3 mps 740 mmHg 63%
    19:00 -2°C° 0 mm 4 mps 740 mmHg 65%
    20:00 -2°C° 0 mm 4 mps 740 mmHg 67%
    21:00 -2°C° 0 mm 4 mps 740 mmHg 69%
    22:00 -2°C° 0 mm 4 mps 740 mmHg 71%
    23:00 -2°C° 0 mm 4 mps 739 mmHg 73%
    Show more